Track COSMOS 2447 (GLONASS) now! COSMOS 2447 (GLONASS) is classified as:
1 33466U 08067A 21023.43098640 -.00000009 00000-0 00000-0 0 9995 2 33466 64.0320 137.4983 0006647 254.0798 105.3392 2.13107351 93965